カタログに戻る

STARLINK-31094

運用中通信VLEO
NORAD 58593·PAYLOAD·🇺🇸 United States

打ち上げ Dec 19, 2023 から Cape Canaveral Space Force Station

Loading…

次のパス (今後24時間)

TLE

最新Source: CelesTrak SupGP

元期: Sep 14, 2026, 21:44 UTC

1 58593C 23200E   26257.90604167 -.00010215  00000+0 -36990-3 0  2579
2 58593  43.0002 180.1632 0001412 268.0439 328.8037 15.27590019    13

AllMySatでSTARLINK-31094をリアルタイム追跡

Download on the App Store